This is the latest recevied weather packets stored in our database for station/object N1ORT. If no packets are shown the sender has not sent any weather packets the latest 10 day(s).
| Time | Temp. | Humidity | Pressure | Rain* | Wind** | Luminosity | Snow |
|---|---|---|---|---|---|---|---|
| 1788461065 | 21.11° C | 93% | 1011.6 hPa | 0 mm | - | 208 W/m² | - |
| 1788460764 | 21.11° C | 94% | 1011.5 hPa | 0 mm | - | 201 W/m² | - |
| 1788460459 | 21.11° C | 92% | 1011.5 hPa | 0 mm | - | 179 W/m² | - |
| 1788460158 | 21.11° C | 91% | 1011.6 hPa | 0 mm | - | 221 W/m² | - |
| 1788459857 | 20.56° C | 94% | 1011.6 hPa | 0 mm | - | 262 W/m² | - |
| 1788459553 | 20.56° C | 94% | 1011.8 hPa | 0 mm | - | 237 W/m² | - |
| 1788459247 | 20.56° C | 94% | 1011.7 hPa | 0 mm | - | 300 W/m² | - |
| 1788458947 | 20.56° C | 94% | 1011.8 hPa | 0 mm | - | 257 W/m² | - |
| 1788458641 | 20.56° C | 94% | 1011.9 hPa | 0 mm | - | 215 W/m² | - |
| 1788458341 | 20° C | 95% | 1011.9 hPa | 0 mm | - | 255 W/m² | - |
| 1788458035 | 20.56° C | 94% | 1012.2 hPa | 0 mm | - | 218 W/m² | - |
| 1788457729 | 20° C | 94% | 1012 hPa | 0 mm | - | 155 W/m² | - |
| 1788457425 | 20° C | 94% | 1012.1 hPa | 0 mm | - | 204 W/m² | - |
| 1788457118 | 20° C | 94% | 1012.1 hPa | 0 mm | - | 172 W/m² | - |
| 1788456814 | 20° C | 95% | 1012 hPa | 0 mm | - | 157 W/m² | - |
| 1788456510 | 20° C | 94% | 1012.1 hPa | 0 mm | - | 187 W/m² | - |
| 1788456204 | 20° C | 95% | 1011.9 hPa | 0 mm | - | 238 W/m² | - |
| 1788455900 | 20° C | 95% | 1011.8 hPa | 0 mm | - | 377 W/m² | - |
| 1788455595 | 20° C | 95% | 1011.7 hPa | 0 mm | - | 318 W/m² | - |
| 1788455294 | 20° C | 96% | 1011.9 hPa | 0 mm | - | 365 W/m² | - |
| 1788454990 | 19.44° C | 97% | 1012 hPa | 0 mm | - | 271 W/m² | - |
| 1788454688 | 19.44° C | 97% | 1012 hPa | 0 mm | - | 158 W/m² | - |
| 1788454383 | 20° C | 97% | 1012.1 hPa | 0 mm | - | 202 W/m² | - |
| 1788454077 | 19.44° C | 97% | 1011.9 hPa | 0 mm | - | 320 W/m² | - |
| 1788453773 | 19.44° C | 97% | 1011.9 hPa | 0 mm | - | 224 W/m² | - |
* Rain latest hour (hover to see other rain measurements)
** Current wind speed in m/s (hover to see current wind gust speed)